| time (UTC) | temp F | wind direction | speed MPH | gust MPH | rain 1hr in | rain 24hr in | rain mn in | humidity % | barometer mb |
| 20260504023049 | 44 | 9 | 0.0 | 1.0 | 0.00 | 0.00 | 0.00 | 66 | 1015.5 |
| 20260504021537 | 45 | 5 | 0.0 | 3.0 | 0.00 | 0.00 | 0.00 | 64 | 1015.4 |
| 20260504020038 | 45 | 17 | 3.0 | 5.0 | 0.00 | 0.00 | 0.00 | 63 | 1015.4 |
| 20260504014545 | 46 | 342 | 2.0 | 6.0 | 0.00 | 0.00 | 0.00 | 61 | 1015.3 |
| 20260504013038 | 47 | 360 | 2.0 | 5.0 | 0.00 | 0.00 | 0.00 | 59 | 1015.1 |
| 20260504011534 | 46 | 355 | 0.0 | 2.0 | 0.00 | 0.00 | 0.00 | 61 | 1014.8 |
| 20260504010036 | 47 | 355 | 0.0 | 2.0 | 0.00 | 0.00 | 0.00 | 57 | 1014.9 |
| 20260504004533 | 49 | 330 | 0.0 | 3.0 | 0.00 | 0.00 | 0.00 | 56 | 1014.5 |
| 20260504003034 | 49 | 11 | 2.0 | 4.0 | 0.00 | 0.00 | 0.00 | 53 | 1014.4 |
| 20260504001527 | 50 | 355 | 0.0 | 1.0 | 0.00 | 0.00 | 0.00 | 50 | 1014.4 |
| 20260504000028 | 53 | 355 | 0.0 | 0.0 | 0.00 | 0.00 | 0.00 | 46 | 1014.4 |
| 20260503234537 | 56 | 355 | 0.0 | 1.0 | 0.00 | 0.00 | 0.00 | 41 | 1014.3 |
| 20260503233026 | 57 | 327 | 1.0 | 3.0 | 0.00 | 0.00 | 0.00 | 31 | 1014.2 |
| 20260503231527 | 58 | 323 | 1.0 | 2.0 | 0.00 | 0.00 | 0.00 | 30 | 1014.1 |
| 20260503230025 | 58 | 290 | 0.0 | 3.0 | 0.00 | 0.00 | 0.00 | 35 | 1014.0 |
| 20260503224524 | 60 | 286 | 0.0 | 2.0 | 0.00 | 0.00 | 0.00 | 31 | 1014.0 |
| 20260503223024 | 61 | 300 | 1.0 | 3.0 | 0.00 | 0.00 | 0.00 | 33 | 1013.9 |
| 20260503221522 | 61 | 27 | 1.0 | 8.0 | 0.00 | 0.00 | 0.00 | 30 | 1014.0 |
| 20260503220023 | 62 | 208 | 1.0 | 3.0 | 0.00 | 0.00 | 0.00 | 26 | 1014.1 |
| 20260503214523 | 62 | 331 | 2.0 | 5.0 | 0.00 | 0.00 | 0.00 | 26 | 1014.1 |
| 20260503213021 | 62 | 69 | 0.0 | 8.0 | 0.00 | 0.00 | 0.00 | 29 | 1014.0 |
| 20260503211520 | 62 | 88 | 2.0 | 6.0 | 0.00 | 0.00 | 0.00 | 28 | 1014.0 |
| 20260503210025 | 62 | 68 | 3.0 | 8.0 | 0.00 | 0.00 | 0.00 | 27 | 1014.3 |
| 20260503204516 | 61 | 355 | 3.0 | 9.0 | 0.00 | 0.00 | 0.00 | 25 | 1014.4 |
| 20260503203022 | 61 | 24 | 3.0 | 9.0 | 0.00 | 0.00 | 0.00 | 28 | 1014.3 |
| 20260503201516 | 61 | 346 | 5.0 | 13.0 | 0.00 | 0.00 | 0.00 | 25 | 1014.7 |
| 20260503200014 | 61 | 71 | 3.0 | 11.0 | 0.00 | 0.00 | 0.00 | 28 | 1014.8 |
| 20260503194514 | 61 | 249 | 5.0 | 12.0 | 0.00 | 0.00 | 0.00 | 28 | 1015.0 |
| 20260503193012 | 61 | 9 | 2.0 | 9.0 | 0.00 | 0.00 | 0.00 | 32 | 1015.3 |
| 20260503191509 | 60 | 24 | 4.0 | 11.0 | 0.00 | 0.00 | 0.00 | 29 | 1015.6 |
| 20260503190009 | 60 | 343 | 2.0 | 12.0 | 0.00 | 0.00 | 0.00 | 32 | 1015.8 |
| 20260503184517 | 59 | 13 | 4.0 | 13.0 | 0.00 | 0.00 | 0.00 | 34 | 1016.0 |
| 20260503183007 | 60 | 343 | 5.0 | 13.0 | 0.00 | 0.00 | 0.00 | 34 | 1016.2 |
| 20260503181506 | 59 | 11 | 3.0 | 9.0 | 0.00 | 0.00 | 0.00 | 34 | 1016.2 |
| 20260503180017 | 58 | 302 | 1.0 | 14.0 | 0.00 | 0.00 | 0.00 | 37 | 1016.3 |
| 20260503174502 | 58 | 117 | 1.0 | 11.0 | 0.00 | 0.00 | 0.00 | 35 | 1016.3 |
| 20260503173119 | 57 | 5 | 3.0 | 11.0 | 0.00 | 0.00 | 0.00 | 34 | 1016.5 |
| 20260503171557 | 56 | 254 | 3.0 | 13.0 | 0.00 | 0.00 | 0.00 | 35 | 1016.9 |
| 20260503081556 | 42 | 345 | 0.0 | 3.0 | 0.00 | 0.00 | 0.00 | 61 | 1015.2 |
| 20260503071549 | 44 | 321 | 1.0 | 5.0 | 0.00 | 0.00 | 0.00 | 60 | 1014.5 |
| 20260503054538 | 44 | 79 | 2.0 | 6.0 | 0.00 | 0.00 | 0.00 | 63 | 1014.0 |
| 20260503053037 | 45 | 101 | 0.0 | 3.0 | 0.00 | 0.00 | 0.00 | 61 | 1014.0 |
| 20260503051531 | 46 | 103 | 0.0 | 2.0 | 0.00 | 0.00 | 0.00 | 59 | 1014.1 |
| 20260503050029 | 46 | 313 | 3.0 | 8.0 | 0.00 | 0.00 | 0.00 | 57 | 1014.1 |
| 20260503044526 | 47 | 59 | 1.0 | 6.0 | 0.00 | 0.00 | 0.00 | 57 | 1014.2 |
| 20260503043023 | 47 | 44 | 0.0 | 5.0 | 0.00 | 0.00 | 0.00 | 57 | 1014.2 |
| 20260503041520 | 48 | 38 | 0.0 | 3.0 | 0.00 | 0.00 | 0.00 | 56 | 1014.2 |
| 20260503040017 | 48 | 43 | 1.0 | 4.0 | 0.00 | 0.00 | 0.00 | 54 | 1014.0 |
| 20260503034533 | 48 | 40 | 1.0 | 4.0 | 0.00 | 0.00 | 0.00 | 53 | 1013.9 |
| 20260503033016 | 49 | 11 | 0.0 | 1.0 | 0.00 | 0.00 | 0.00 | 50 | 1013.7 |
| 20260503031515 | 50 | 5 | 0.0 | 5.0 | 0.00 | 0.00 | 0.00 | 47 | 1013.6 |
| 20260503030015 | 50 | 18 | 0.0 | 5.0 | 0.00 | 0.00 | 0.00 | 48 | 1013.6 |
| 20260503024513 | 50 | 23 | 0.0 | 7.0 | 0.00 | 0.00 | 0.00 | 47 | 1013.6 |